Regional Weather Roundup
Issued by NWS Charleston, SC

Current Version | Previous Version | Graphics & Text | Print | Product List | Glossary On
Versions: 1 2 3 4 5 6 7 8 9 10 11 12 13 14 15 16 17 18 19 20 21 22 23 24 25 26 27 28 29 30 31 32 33 34 35 36 37 38 39 40 41 42 43 44 45 46 47 48 49 50
000 ASUS42 KCHS 260828 RWRCHS REGIONAL WEATHER ROUNDUP NATIONAL WEATHER SERVICE CHARLESTON SC 400 AM EDT TUE JUL 26 2016 NOTE: "FAIR" INDICATES FEW OR NO CLOUDS BELOW 12,000 FEET WITH NO SIGNIFICANT WEATHER AND/OR OBSTRUCTIONS TO VISIBILITY. NOT ALL STATIONS ARE QUALITY CONTROLLED. USE DATA WITH CAUTION... ESPECIALLY DEWPOINT OBSERVATIONS. SCZ027-030-031-034>040-042>050-260900- ...SOUTHEAST SOUTH CAROLINA... CITY SKY/WX TMP DP RH WIND PRES REMARKS N CHARLESTON CLEAR 76 72 87 SW3 30.03F WATERFRONT PRK N/A 81 76 85 SW5 30.01F MOUNT PLEASANT FAIR 77 73 88 CALM 30.03S JOHNS ISLAND FAIR 79 73 83 CALM 30.03S PINOPOLIS N/A 79 73 83 SW7 29.96F MONCKS CORNER FAIR 70 70 100 CALM 30.03S SUMMERVILLE FAIR 73 73 100 CALM 30.04S BEAUFORT MCAS CLEAR 78 73 84 SW3 30.03F BEAUFORT ARPT FAIR 81 75 83 SW6 30.03F HILTON HEAD IS CLEAR 81 77 89 SW5 30.04F WALTERBORO SUNNY 77 77 100 CALM 30.04S ALLENDALE FAIR 75 72 88 CALM 30.02F ...SOUTHERN MIDLANDS AND PEE DEE... CITY SKY/WX TMP DP RH WIND PRES REMARKS GEORGETOWN FAIR 72 72 100 CALM 30.04S KINGSTREE FAIR 73 70 88 CALM 30.02F ORANGEBURG CLEAR 74 71 91 S5 30.04F BARNWELL NOT AVBL AIKEN FAIR 75 70 83 S7 30.07F MANNING FAIR 77 72 83 SW3 30.03S COLUMBIA CLEAR 79 71 76 SW6 30.02S SUMTER CLEAR 77 72 84 SW8 30.00F FLORENCE CLEAR 78 73 84 SW8 30.02S MYRTLE BEACH CLEAR 79 66 65 W5 30.04S N MYRTLE BEACH CLEAR 80 73 79 SW8 30.02F $$ GAZ063-065-086>088-099>101-113>116-118-119-134>141-150-260900- ...SOUTHEAST GEORGIA... CITY SKY/WX TMP DP RH WIND PRES REMARKS SAVANNAH ARPT CLEAR 77 72 84 S7 30.04F HUNTER AAF CLEAR 78 77 95 SW6 30.02F FORT STEWART CLEAR 75 72 89 CALM 30.02F STATESBORO CLEAR 76 74 92 CALM 30.03F SYLVANIA NOT AVBL CLAXTON FAIR 74 74 98 CALM 30.04F ...CSRA...CENTRAL AND FAR SOUTHEAST GEORGIA... CITY SKY/WX TMP DP RH WIND PRES REMARKS THOMSON NOT AVBL AUGUSTA-BUSH CLEAR 75 70 84 S3 30.02F AUGUSTA-DANIEL CLEAR 79 70 74 S7 30.04F SWAINSBORO FAIR 75 72 88 CALM 30.05F VIDALIA CLEAR 75 72 88 CALM 30.05S EASTMAN FAIR 75 74 96 CALM 30.07S HAZLEHURST FAIR 77 76 96 CALM 30.04F ALMA CLEAR 75 72 90 CALM 30.05S WAYCROSS PTCLDY 77 76 97 CALM 30.05S JESUP FAIR 73 73 100 CALM 30.04F BAXLEY FAIR 75 75 100 CALM 30.04F BRUNSWICK CLEAR 75 75 100 CALM 30.05F SAINT SIMONS CLEAR 79 73 82 SW3 30.04F $$ SCZ027-028-034-036>038-045-046-048>050-GAZ119-141-260900- ...LAKE AND SUPPLEMENTAL COASTAL OBSERVATIONS... STATION/POSITION TIME TEMP WIND PRES WAVE SWELL AIR SEA DIR/SP/G HT/PER HT/PER/DIR (UTC) (F) (DEG/KT/KT) (MB) (FT/S) (FT/S/D) WINYAH BAY 0700 78 250/ 3 1016.0F LAKE MURRAY NOT AVBL ACE BASIN NERRS 0700 77 CALM 1018.0S FORT PULASKI 0800 82 87 220/ 6/ 9 1017.6F SAPELO ISLAND 0800 80 200/ 5 1017.0F $$ ANZ835-935-AMZ111-154-330-350-352-354-370-450-454-472-260900- ...C-MAN AND BUOY OBSERVATIONS... STATION/POSITION TIME TEMP WIND PRES WAVE SWELL AIR SEA DIR/SP/G HT/PER HT/PER/DIR (UTC) (F) (DEG/KT/KT) (MB) (FT/S) (FT/S/D) BUOY 41004 0750 84 86 220/ 14/ 17 1016.5F 2/ 4 2/130/ 9 BUOY 41008 0750 85 86 220/ 12/ 14 1017.0F 3/ 4 2/100/ 9 FOLLY BEACH CMAN 0800 83 210/ 16/ 18 1016.9F CAPERS NEARSHORE 0808 83 83 230/ 14/ 19 1016.7F FRIPP NEARSHORE 0808 85 86 220/ 16/ 19 1016.2F STATION/POSITION TIME TEMP WIND PRES WAVE SWELL AIR SEA DIR/SP/G HT/PER HT/PER/DIR (UTC) (F) (DEG/KT/KT) (MB) (FT/S) (FT/S/D) 5E ST. MARYS GA 0801 86 N/A 2/ 4 FRYING PAN BUOY 0800 84 86 240/ 14/ 17 1016.5F BUOY 41025 0750 84 85 250/ 17/ 23 1016.1R 5/ 5 CAPE LOOKOUT NC 0800 83 250/ 14/ 17 1016.2R BUOY 41002 0750 83 84 200/ 6/ 6 1018.4F 2/ 8 2/ 90/ 8 BUOY 41010 0720 85 86 180/ 10/ 12 1018.4F ST AUGUSTINE FL 0800 78 85 210/ 4/ 4 1018.5F $$

USA.gov is the U.S. government's official web portal to all federal, state and local government web resources and services.